Station BGXN3 - Greenland, Great Bay Reserve, NH Image indicating link to RSS feed of recent meteorological observations for station BGXN3


Conditions at BGXN3 as of
(7:45 am EST)
1245 GMT on 12/05/2023:
Note: This report is more than two hours old
     

Click on the graph icon in the table below to see a time series plot of the last five days of that observation.

5-day plot - Wind Direction Wind Direction (WDIR): N ( 10 deg true )
5-day plot - Wind Speed Wind Speed (WSPD): 1.9 kts
5-day plot - Atmospheric Pressure Atmospheric Pressure (PRES):29.97 in
5-day plot - Air Temperature Air Temperature (ATMP): 31.3 °F
5-day plot - Dew Point Dew Point (DEWP): 28.9 °F
5-day plot -  Wind Speed, Wind Gust and Atmospheric Pressure Combined plot of Wind Speed, Gust, and Air Pressure
Previous observations
TIME
(EST)
5-day plot - Wind Direction
WDIR
 
5-day plot - Wind Speed
WSPD
kts
5-day plot - Wind Gust
GST
kts
5-day plot - Wave Height
WVHT
ft
5-day plot - Dominant Wave Period
DPD
sec
5-day plot - Average Wave Period
APD
sec
5-day plot - Mean Wave Direction
MWD
 
5-day plot - Atmospheric Pressure
PRES
in
5-day plot - Pressure Tendency
PTDY
in
5-day plot - Air Temperature
ATMP
°F
5-day plot - Water Temperature
WTMP
°F
5-day plot - Dew Point
DEWP
°F
5-day plot - Salinity
SAL
psu
5-day plot - Visibility
VIS
nmi
5-day plot - Tide (above MLLW)
TIDE
ft
2023-12-05 07:30 am N 1.9-----29.94- 31.3- 29.8---
2023-12-05 07:15 am N 1.9-----29.94- 31.6- 30.6---
2023-12-05 07:00 am N 1.0-----29.94+0.09 31.6- 30.6---
2023-12-05 06:45 amNNW 1.0-----29.94- 31.6- 30.6---
2023-12-05 06:30 am N 1.9-----29.94- 31.6- 30.6---
2023-12-05 06:15 amNNE 1.0-----29.91- 31.8- 30.7---
2023-12-05 06:00 amNNE 1.0-----29.91+0.06 32.0- 30.9---
2023-12-05 05:45 am N 1.0-----29.91- 32.2- 30.7---
2023-12-05 05:30 am- 0.0-----29.88- 32.4- 30.9---
2023-12-05 05:15 am N 1.0-----29.88- 32.4- 30.9---
2023-12-05 05:00 am N 1.0-----29.88+0.06 32.2- 30.9---
2023-12-05 04:45 am- 0.0-----29.88- 32.0- 30.7---
2023-12-05 04:30 am- 0.0-----29.88- 31.8- 30.6---
2023-12-05 04:15 am- 0.0-----29.85- 31.8- 30.4---
2023-12-05 04:00 amNNW 1.0-----29.85+0.06 32.0- 30.6---
2023-12-05 03:45 am- 0.0-----29.85- 32.2- 30.7---
2023-12-05 03:30 am N 1.0-----29.85- 32.4- 30.9---
2023-12-05 03:15 am NW 1.9-----29.85- 32.4- 31.1---
2023-12-05 03:00 am NW 1.0-----29.85+0.06 32.4- 31.1---
2023-12-05 02:45 am NW 1.0-----29.83- 32.4- 31.1---
2023-12-05 02:30 am NW 1.9-----29.83- 32.5- 31.3---
2023-12-05 02:15 am NW 1.9-----29.83- 32.5- 31.5---
2023-12-05 02:00 am- 0.0-----29.83+0.03 32.5- 31.5---
2023-12-05 01:45 am NW 1.0-----29.83- 32.4- 31.3---
2023-12-05 01:30 am NW 1.0-----29.83- 32.5- 31.5---
2023-12-05 01:15 am NW 1.9-----29.80- 32.7- 31.6---
2023-12-05 01:00 amNNW 1.9-----29.80+0.00 32.7- 31.6---
2023-12-05 12:45 amWNW 1.0-----29.80- 32.7- 31.6---
2023-12-05 12:30 amNNW 1.0-----29.80- 32.7- 32.0---
2023-12-05 12:15 am N 1.9-----29.80- 32.7- 31.6---
2023-12-05 12:00 am N 1.0-----29.80+0.00 32.9- 31.8---
2023-12-04 11:45 pm N 1.9-----29.80- 32.9- 31.8---
2023-12-04 11:30 pm N 1.9-----29.80- 33.1- 32.0---
2023-12-04 11:15 pm N 1.9-----29.80- 33.3- 32.5---
2023-12-04 11:00 pm N 1.0-----29.80+0.00 33.4- 32.7---
2023-12-04 10:45 pm N 1.9-----29.80- 33.4- 32.7---
2023-12-04 10:30 pm N 1.9-----29.80- 33.6- 32.9---
2023-12-04 10:15 pm N 1.9-----29.80- 33.8- 33.3---
2023-12-04 10:00 pm- 0.0-----29.80+0.03 34.0- 33.4---
2023-12-04 09:45 pm- 0.0-----29.80- 34.0- 33.4---
2023-12-04 09:30 pm- 0.0-----29.80- 34.0- 33.8---
2023-12-04 09:15 pm- 0.0-----29.80- 34.0- 33.8---
2023-12-04 09:00 pm- 0.0-----29.80+0.06 34.0- 33.8---
2023-12-04 08:45 pmNNW 1.0-----29.80- 34.0- 33.8---
2023-12-04 08:30 pmWNW 1.0-----29.80- 34.3- 34.2---
2023-12-04 08:15 pm- 0.0-----29.80- 34.3- 34.2---
2023-12-04 08:00 pm- 0.0-----29.80+0.06 34.3- 34.2---
2023-12-04 07:45 pmNNW 1.0-----29.80- 34.3- 34.2---
2023-12-04 07:30 pm N 1.0-----29.80- 34.3- 34.2---
2023-12-04 07:15 pm- 0.0-----29.80- 34.5- 34.3---
2023-12-04 07:00 pmNNE 1.9-----29.77+0.03 34.5- 34.0---
2023-12-04 06:45 pmNNE 1.9-----29.77- 34.7- 34.2---
2023-12-04 06:30 pmENE 1.9-----29.77- 34.9- 34.3---
2023-12-04 06:15 pm NE 2.9-----29.74- 35.2- 34.5---
2023-12-04 06:00 pmNNE 1.9-----29.74+0.00 35.6- 34.5---
2023-12-04 05:45 pmNNE 1.9-----29.74- 36.0- 34.9---
2023-12-04 05:30 pm N 1.9-----29.74- 36.3- 35.1---
2023-12-04 05:15 pm N 1.9-----29.74- 36.9- 35.6---
2023-12-04 05:00 pmNNE 1.9-----29.74+0.03 37.0- 35.4---
2023-12-04 04:45 pmNNE 1.0-----29.74- 37.0- 35.4---
2023-12-04 04:30 pm NE 1.9-----29.74- 37.0- 35.4---
2023-12-04 04:15 pm NE 1.9-----29.74- 37.0- 35.4---
2023-12-04 04:00 pm E 1.0-----29.74+0.03 37.2- 35.4---
2023-12-04 03:45 pm NE 1.9-----29.74- 37.2- 35.4---
2023-12-04 03:30 pm NE 1.9-----29.74- 37.2- 35.4---
2023-12-04 03:15 pm NE 1.9-----29.74- 37.4- 35.6---
2023-12-04 03:00 pm NE 1.9-----29.74+0.03 37.6- 35.4---
2023-12-04 02:45 pmENE 1.0-----29.74- 37.8- 35.4---
2023-12-04 02:30 pm NE 1.0-----29.74- 37.8- 35.6---
2023-12-04 02:15 pm- 0.0-----29.71- 37.4- 35.2---
2023-12-04 02:00 pm W 1.0-----29.71-0.03 37.4- 35.2---
2023-12-04 01:45 pm W 1.9-----29.71- 37.6- 35.2---
2023-12-04 01:30 pm W 1.9-----29.71- 37.6- 35.2---
2023-12-04 01:15 pm NW 1.9-----29.71- 37.6- 35.2---
2023-12-04 01:00 pm W 1.9-----29.71-0.03 37.8- 35.4---
2023-12-04 12:45 pmNNE 1.0-----29.71- 37.4- 35.2---
2023-12-04 12:30 pmENE 1.9-----29.71- 36.9- 34.5---
2023-12-04 12:15 pmNNW 1.9-----29.71- 36.9- 34.5---
2023-12-04 12:00 pm NW 1.0-----29.71-0.03 36.9- 34.5---
2023-12-04 11:45 am W 1.9-----29.74- 36.3- 34.2---
2023-12-04 11:30 am W 1.9-----29.74- 36.0- 34.2---
2023-12-04 11:15 am W 2.9-----29.74- 36.0- 34.3---
2023-12-04 11:00 amWNW 1.9-----29.74+0.03 35.8- 34.2---
2023-12-04 10:45 am W 1.9-----29.74- 35.6- 34.0---
2023-12-04 10:30 am N 1.0-----29.74- 35.6- 34.0---
2023-12-04 10:15 am N 1.0-----29.74- 35.2- 33.6---
2023-12-04 10:00 amNNE 1.9-----29.74+0.03 35.1- 33.8---